Edinburgh Airport, United Kingdom

1:26 AM BST on April 24, 2017 (GMT +0100)
Edinburgh Airport

Weather History for EGPH - June, 2014

Change the Weather History Date:

Sunday, June 8, 2014

  Actual Average Record
Temperature  
Mean Temperature 58 °F -  
Max Temperature 68 °F 64 °F 71 °F (2006)
Min Temperature 48 °F 49 °F 39 °F (2013)
Degree Days  
Heating Degree Days 7    
Growing Degree Days 8 (Base 50)    
Moisture  
Dew Point 50 °F    
Average Humidity 71    
Maximum Humidity 100    
Minimum Humidity 49    
Precipitation  
Precipitation 0.00 in 0.07 in - ()
Sea Level Pressure  
Sea Level Pressure 29.96 in    
Wind  
Wind Speed 8 mph ()    
Max Wind Speed 18 mph    
Max Gust Speed -    
Visibility 6.2 miles    
Events Rain    
Averages and records for this station are not official NWS values.
T = Trace of Precipitation, MM = Missing Value Source: Averaged Metar Reports

Daily Weather History Graph

Daily Weather History Graph

Search for Another Location

Airport or City:

Trip Planner

Search our weather history database for the weather conditions in past years. The results will help you decide how hot, cold, wet, or windy it might be!

Date:

Astronomy

Jun. 08, 2014 Rise Set
Actual Time 4:29 AM BST 9:55 PM BST
Civil Twilight 3:29 AM BST 10:55 PM BST
Nautical Twilight 1:44 AM BST 12:40 AM BST
Astronomical Twilight Sun does not set Sun does not set
Moon 4:07 PM BST (6/8) 2:13 AM BST (6/8)
Length of Visible Light 19h 26m
Length of Day
17h 25m
Waxing Gibbous, 75% of the Moon is Illuminated
Jun 8
Waxing Gibbous
Jun 13
Full
Jun 19
Last Quarter
Jun 27
New
Jul 5
First Quarter

Hourly Weather History & Observations

Time (BST) Temp. Dew Point Humidity Pressure Visibility Wind Dir Wind Speed Gust Speed Precip Events Conditions
12:20 AM 48.2 °F 48.2 °F 100% 29.89 in - WSW 4.6 mph - N/A   Clear
12:50 AM 51.8 °F 50.0 °F 94% 29.89 in - West 4.6 mph - N/A   Clear
1:20 AM 51.8 °F 50.0 °F 94% 29.89 in - NW 4.6 mph - N/A   Clear
1:50 AM 50.0 °F 48.2 °F 94% 29.89 in - WSW 4.6 mph - N/A   Clear
2:20 AM 51.8 °F 48.2 °F 88% 29.89 in 6.2 mi West 4.6 mph - N/A   Partly Cloudy
2:50 AM 51.8 °F 48.2 °F 88% 29.89 in 6.2 mi Variable 2.3 mph - N/A   Partly Cloudy
3:20 AM 53.6 °F 50.0 °F 88% 29.89 in - SW 8.1 mph - N/A   Clear
3:50 AM 55.4 °F 50.0 °F 82% 29.89 in - SW 10.4 mph - N/A   Clear
4:20 AM 53.6 °F 50.0 °F 88% 29.89 in - WSW 8.1 mph - N/A   Clear
4:50 AM 53.6 °F 50.0 °F 88% 29.89 in - SSW 12.7 mph - N/A   Clear
5:20 AM 53.6 °F 50.0 °F 88% 29.89 in - WSW 5.8 mph - N/A   Clear
5:50 AM 53.6 °F 50.0 °F 88% 29.89 in - NW 4.6 mph - N/A   Clear
6:20 AM 55.4 °F 50.0 °F 82% 29.92 in - Variable 2.3 mph - N/A   Clear
6:50 AM 57.2 °F 51.8 °F 82% 29.92 in - WSW 4.6 mph - N/A   Clear
7:20 AM 59.0 °F 51.8 °F 77% 29.92 in 6.2 mi Variable 3.5 mph - N/A   Partly Cloudy
7:50 AM 59.0 °F 51.8 °F 77% 29.95 in 6.2 mi WSW 8.1 mph - N/A   Scattered Clouds
8:20 AM 59.0 °F 51.8 °F 77% 29.95 in 6.2 mi SSW 8.1 mph - N/A   Scattered Clouds
8:50 AM 60.8 °F 51.8 °F 72% 29.95 in 6.2 mi SSW 11.5 mph - N/A   Scattered Clouds
9:20 AM 64.4 °F 53.6 °F 68% 29.95 in 6.2 mi SSW 12.7 mph - N/A   Scattered Clouds
9:50 AM 64.4 °F 53.6 °F 68% 29.95 in 6.2 mi WSW 10.4 mph - N/A   Mostly Cloudy
10:20 AM 64.4 °F 51.8 °F 64% 29.95 in 6.2 mi SW 12.7 mph - N/A   Scattered Clouds
10:50 AM 64.4 °F 50.0 °F 59% 29.95 in 6.2 mi SW 15.0 mph - N/A   Scattered Clouds
11:20 AM 62.6 °F 50.0 °F 63% 29.95 in 6.2 mi SW 13.8 mph - N/A   Mostly Cloudy
11:50 AM 62.6 °F 50.0 °F 63% 29.98 in 6.2 mi SSW 17.3 mph - N/A Rain Light Rain
12:20 PM 66.2 °F 51.8 °F 60% 29.98 in 6.2 mi SSW 16.1 mph - N/A   Scattered Clouds
12:50 PM 66.2 °F 53.6 °F 64% 29.95 in 6.2 mi SW 11.5 mph - N/A   Scattered Clouds
1:20 PM 68.0 °F 51.8 °F 56% 29.95 in 6.2 mi SSW 12.7 mph - N/A   Scattered Clouds
1:50 PM 68.0 °F 51.8 °F 56% 29.95 in 6.2 mi SSW 16.1 mph - N/A   Mostly Cloudy
2:20 PM 68.0 °F 51.8 °F 56% 29.98 in 6.2 mi SSW 16.1 mph - N/A   Partly Cloudy
2:50 PM 68.0 °F 50.0 °F 52% 29.98 in - SSW 17.3 mph - N/A   Clear
3:20 PM 66.2 °F 50.0 °F 56% 29.98 in 6.2 mi SSW 15.0 mph - N/A   Scattered Clouds
3:50 PM 66.2 °F 50.0 °F 56% 29.98 in 6.2 mi SW 17.3 mph - N/A   Scattered Clouds
4:20 PM 66.2 °F 50.0 °F 56% 29.98 in 6.2 mi SSW 17.3 mph - N/A   Mostly Cloudy
4:50 PM 66.2 °F 50.0 °F 56% 29.98 in 6.2 mi SW 13.8 mph - N/A   Mostly Cloudy
5:20 PM 68.0 °F 48.2 °F 49% 29.98 in 6.2 mi SSW 16.1 mph - N/A   Scattered Clouds
5:50 PM 68.0 °F 48.2 °F 49% 29.98 in 6.2 mi SSW 18.4 mph - N/A   Partly Cloudy
6:20 PM 66.2 °F 46.4 °F 49% 29.98 in - SSW 18.4 mph - N/A   Clear
6:50 PM 64.4 °F 48.2 °F 56% 29.98 in - SSW 17.3 mph - N/A   Clear
7:20 PM 64.4 °F 48.2 °F 56% 29.98 in - SSW 16.1 mph - N/A   Clear
7:50 PM 62.6 °F 50.0 °F 63% 30.01 in - SW 11.5 mph - N/A   Clear
8:20 PM 62.6 °F 50.0 °F 63% 30.01 in 6.2 mi SSW 9.2 mph - N/A   Partly Cloudy
8:50 PM 60.8 °F 50.0 °F 68% 30.01 in - SSW 13.8 mph - N/A   Clear
9:20 PM 60.8 °F 50.0 °F 68% 30.01 in - SSW 9.2 mph - N/A   Clear
9:50 PM 59.0 °F 50.0 °F 72% 30.04 in - South 9.2 mph - N/A   Clear
10:20 PM 57.2 °F 48.2 °F 72% 30.04 in - SSW 11.5 mph - N/A   Clear
10:50 PM 57.2 °F 48.2 °F 72% 30.04 in 6.2 mi SSE 10.4 mph - N/A   Unknown
11:20 PM 53.6 °F 48.2 °F 82% 30.04 in - Variable 3.5 mph - N/A   Clear
11:50 PM 53.6 °F 46.4 °F 77% 30.04 in - Variable 2.3 mph - N/A   Clear